Location: Palmerston North
(40.3500°S, 175.6170°E)
Time: 14:58:44
(UTC+13:00)

COSMOS 2428 - Visible Passes

Search period start: 19 November 2019 00:00
Search period end: 29 November 2019 00:00
Orbit: 844 x 858 km, 70.9° (Epoch: 18 November)

Date Brightness Start Highest point End Pass type
(mag) Time Alt. Az. Time Alt. Az. Time Alt. Az.
19 Nov 5.4 21:41:05 10° WSW 21:43:10 12° W 21:45:14 10° WNW visible
20 Nov 5.4 21:28:51 10° WSW 21:30:55 12° W 21:32:59 10° WNW visible
21 Nov 5.5 21:16:37 10° WSW 21:18:41 12° W 21:20:45 10° WNW visible
22 Nov 5.5 21:04:22 10° WSW 21:06:27 12° W 21:08:31 10° WNW visible
23 Nov 5.6 20:52:08 10° WSW 20:54:13 12° W 20:56:17 10° WNW visible
